TIME,DELAY(SENSOR),PRES,T(CTD),SAL,OXYGEN,RAWTEMP,T(OPTODE),TCPHASE,FLUOR,BETA(BETA700),BETA(BETA412),BETA(BETA440),CDOM,C(CSC),ED(ED411.90),ED(ED443.80),ED(ED489.40),ED(ED554.70),LU(LU412.20),LU(LU443.80),LU(LU489.40),LU(LU555.00),COMP,TILTX,TILTX(TILTY),CHECK
1349709174,5805,496.7999877929687500,16.9071998596191400,36.3530006408691400,223.9754943847656200,191.2615051269531200,16.9117507934570300,31.7721996307373050,50,101,80,61,50,13013,2146958070,2147516982,2147268617,2147468425,2147084617,2146952475,2147658267,2147125760,3444,-2,8,40123
1349709287,5805,485.8099975585937500,17.0492992401123050,36.3788986206054700,225.4335021972656200,186.8630981445312500,17.0443592071533200,31.6371803283691400,50,101,81,62,50,13012,2146958381,2147515593,2147270921,2147467492,2147085458,2146956982,2147655149,2147125668,10,-1,8,35076
1349709397,5804,475.1600036621094000,17.1018009185791000,36.3869018554687500,225.9093017578125000,185.0200042724609400,17.0999393463134770,31.5874805450439450,51,100,80,60,50,13014,2146954166,2147514724,2147268562,2147466633,2147087634,2146953581,2147658121,2147121572,318,-1,8,65174
1349709507,5805,464.5899963378906000,17.1616001129150400,36.3951988220214840,224.3374023437500000,183.0767974853515600,17.1585407257080080,31.6412906646728500,50,100,80,61,50,13011,2146956534,2147517056,2147270418,2147467821,2147088201,2146957046,2147654793,2147125458,650,-1,8,49619
1349709619,5806,453.7699890136719000,17.2633991241455080,36.4146995544433600,224.4008026123047000,179.5547027587890600,17.2647590637207030,31.5897102355957030,50,102,79,60,51,13014,2146956681,2147516580,2147266962,2147463314,2147087369,2146956672,2147656054,2147126930,3220,-1,8,13242
1349709729,5807,443.3399963378906000,17.3381996154785160,36.4285011291503900,225.7857971191406200,177.3218994140625000,17.3321094512939450,31.4882202148437500,50,100,80,62,50,13034,2146954194,2147516324,2147269165,2147465590,2147085979,2146956205,2147651117,2147125897,1624,-2,8,41355
1349709850,5806,432.1000061035156000,17.4435005187988280,36.4481010437011700,226.1123046875000000,173.4084930419922000,17.4501705169677730,31.4185390472412100,50,100,80,61,50,13032,2146956288,2147514386,2147270418,2147465746,2147087853,2146950756,2147657078,2147121115,725,-1,8,24210
1349709973,5805,421.1300048828125000,17.5359001159667970,36.4662017822265600,228.5785980224609400,170.3928070068359400,17.5411491394042970,31.2530994415283200,50,103,81,61,50,13033,2146958528,2147513133,2147267995,2147461165,2147088091,2146952210,2147655177,2147122112,98,-1,8,25478
1349710094,5806,410.8500061035156000,17.6667995452880860,36.4920997619628900,231.2888031005859400,166.3506927490234400,17.6631298065185550,31.0639190673828120,50,101,81,62,50,13030,2146954806,2147515849,2147266294,2147463369,2147086802,2146958985,2147653174,2147123245,2957,-1,8,45106
1349710229,5803,399.9200134277344000,17.7598991394042970,36.5083999633789060,232.5157012939453000,163.4396057128906200,17.7509994506835940,30.9643993377685550,50,100,80,61,50,13032,2146956672,2147514761,2147266688,2147464118,2147087305,2146961435,2147649746,2147125028,2508,-1,8,31062
1349710372,5804,388.5599975585937500,17.8630008697509770,36.5293006896972660,234.9420013427734400,159.9174957275390600,17.8573207855224600,30.7992191314697270,50,101,81,60,50,13033,2146957924,2147515410,2147268434,2147462427,2147085476,2146957924,2147657014,2147117083,2134,-1,8,37220
1349710537,5801,374.9800109863281000,17.9216995239257800,36.5390014648437500,235.1018066406250000,157.8309020996093800,17.9203300476074220,30.7633590698242200,50,101,80,60,50,13032,2146954697,2147517321,2147265645,2147460918,2147086491,2146955145,2147650742,2147124662,1689,-2,9,34070
1349710649,5805,363.7600097656250000,17.9428997039794920,36.5415000915527340,235.1401062011718800,157.1087036132812500,17.9421291351318360,30.7519493103027340,50,101,80,62,49,13033,2146954075,2147517933,2147264868,2147462829,2147085622,2146956937,2147655314,2147120521,1360,-1,9,22732
1349710759,5806,352.3500061035156000,17.9906997680664060,36.5460014343261700,234.4846038818359400,155.6791992187500000,17.9853000640869140,30.7645606994628900,50,102,81,61,50,13031,2146955154,2147516242,2147268105,2147463414,2147086948,2146963264,2147657984,2147120100,1065,-2,8,22408
1349710871,5805,340.7399902343750000,18.0414009094238280,36.5530014038085940,234.5289001464843800,153.8067932128906200,18.0418491363525400,30.7373695373535160,50,102,81,60,50,13030,2146960201,2147512749,2147266413,2147463049,2147083858,2146956580,2147651364,2147117385,737,-1,8,35291
1349710981,5807,329.5899963378906000,18.0877990722656250,36.5578002929687500,233.0160980224609400,152.4963073730468800,18.0814304351806640,30.7932605743408200,51,101,80,61,50,13031,2146959314,2147513344,2147266313,2147462244,2147089142,2146964928,2147658194,2147119341,97,-1,8,70
1349711091,5804,318.5700073242187500,18.1348991394042970,36.5643005371093750,232.9351959228515600,150.7402038574218800,18.1344795227050780,30.7736206054687500,50,102,82,62,50,13027,2146958034,2147514697,2147268608,2147462061,2147087350,2146960850,2147657782,2147121389,2971,-2,9,56852
1349711208,5805,308.2200012207031000,18.2120990753173830,36.5719985961914060,232.5343933105468800,148.3766021728515600,18.2058792114257800,30.7613391876220700,50,100,81,61,50,13030,2146955529,2147513362,2147264649,2147459072,2147088045,2146962560,2147655606,2147119277,1660,-2,9,17793
1349711351,5803,297.5899963378906000,18.2908000946044920,36.5806007385253900,231.6287994384765600,145.7407989501953000,18.2855300903320300,30.7702007293701170,50,102,81,61,50,13028,2146953892,2147517321,2147266422,2147457590,2147085769,2146967433,2147658596,2147123830,1196,-1,9,21966
1349711515,5807,284.2900085449219000,18.3668994903564450,36.5870018005371100,230.0507965087890600,143.2559967041015600,18.3606204986572270,30.8146705627441400,50,102,82,61,50,13028,2146954669,2147514011,2147265426,2147457188,2147088118,2146969938,2147668251,2147123273,319,-1,8,62299
1349711625,5806,273.5100097656250000,18.4528007507324220,36.5927009582519500,228.7691955566406200,140.0955047607422000,18.4561595916748050,30.8356800079345700,50,101,81,61,50,13028,2146953005,2147513627,2147268598,2147457060,2147084443,2146964434,2147675117,2147128356,133,-1,8,31452
1349711746,5801,261.4299926757812500,18.5694999694824220,36.5987014770507800,225.2870025634765600,136.5446929931640600,18.5635204315185550,30.9623203277587900,51,103,81,60,51,13029,2146954258,2147518573,2147264320,2147458651,2147087725,2146972946,2147672896,2147124928,3400,-1,8,9580
1349711858,5804,250.1300048828125000,18.6567001342773440,36.5982017517089840,223.6752014160156200,133.6748046875000000,18.6503105163574220,31.0056095123291000,51,101,80,62,50,13027,2146957952,2147513298,2147266596,2147457691,2147087158,2146975378,2147675209,2147125366,2430,-1,8,33956
1349711968,5805,238.4700012207031200,18.7539997100830080,36.6032981872558600,225.4333953857422000,130.3744964599609400,18.7501392364501950,30.8725395202636720,50,100,81,60,50,13030,2146955136,2147514432,2147264420,2147455780,2147085796,2146983076,2147691657,2147133522,2968,-2,9,24473
1349712067,5803,227.7299957275390600,18.8108005523681640,36.5955009460449200,227.5845031738281200,128.4237976074218800,18.8091697692871100,30.7390995025634770,50,101,81,60,50,13026,2146954505,2147516324,2147266660,2147457170,2147085586,2147010633,2147748507,2147133266,2118,-1,8,54130
1349712184,5803,216.5500030517578000,18.9403991699218750,36.5919990539550800,230.3217010498047000,124.3311996459961000,18.9330291748046880,30.5495204925537100,51,101,80,60,50,13031,2146953225,2147518930,2147267401,2147454838,2147090834,2147023707,2147785728,2147135917,2098,-2,9,7085
1349712327,5805,205.8899993896484400,19.0179004669189450,36.5821990966796900,232.6109008789062500,121.4489974975586000,19.0202808380126950,30.4001808166503900,51,102,79,60,50,13029,2146955867,2147514752,2147270025,2147453440,2147092352,2147039204,2147809280,2147137170,2324,-1,9,47108
1349712450,5802,198.0000000000000000,19.1285991668701170,36.5976982116699200,234.4024963378906200,118.2562026977539000,19.1169700622558600,30.2717990875244140,51,101,81,60,50,13031,2146953444,2147516187,2147269851,2147454473,2147092726,2147046034,2147807497,2147135186,3138,-1,9,52100
1349712527,5805,194.6900024414062500,19.1336002349853500,36.5910987854003900,235.5588989257812500,117.6547012329101600,19.1351890563964840,30.2087402343750000,51,105,80,62,50,13029,2146954477,2147515922,2147272886,2147456054,2147093056,2147064841,2147842688,2147135241,3351,-2,9,15766
1349712626,5802,190.9900054931640600,19.1805992126464840,36.5926017761230500,237.9235992431640600,116.4020004272461000,19.1731300354003900,30.0804805755615230,51,100,82,61,50,13025,2146955401,2147518966,2147272100,2147456658,2147093275,2147069449,2147855259,2147137536,3543,-2,9,48471
1349712750,5808,186.9600067138672000,19.1529006958007800,36.5760002136230500,239.3305969238281200,117.1958007812500000,19.1490898132324220,30.0247707366943360,52,100,81,62,50,13025,2146953709,2147515803,2147272027,2147451556,2147096128,2147073197,2147853732,2147139638,401,-2,9,16270
1349712882,5806,183.3000030517578000,19.1439990997314450,36.5535011291503900,240.6649932861328000,117.5979995727539000,19.1368999481201170,29.9681396484375000,53,101,80,60,50,13027,2146952896,2147521206,2147271478,2147453851,2147103424,2147094912,2147882550,2147141275,904,-2,9,44664
1349713068,5806,178.8099975585937500,19.1975002288818360,36.5611000061035160,242.8636932373047000,115.7615966796875000,19.1925296783447270,29.8426990509033200,54,101,81,61,50,13026,2146953042,2147524324,2147277037,2147455332,2147109458,2147178194,2148039030,2147151579,804,-2,9,26108
1349713167,5806,174.9900054931640600,19.2198009490966800,36.5582008361816400,244.3858032226562500,115.1552963256836000,19.2108993530273440,29.7655601501464840,54,102,82,61,50,13022,2146956443,2147527341,2147281417,2147455195,2147111716,2147242148,2148145124,2147158454,458,-2,9,49195
1349713277,5805,170.5500030517578000,19.1522006988525400,36.5233001708984400,246.0032958984375000,116.8471984863281200,19.1596508026123050,29.7140998840332030,56,103,82,61,50,13023,2146958857,2147525376,2147281673,2147452452,2147116635,2147266459,2148182180,2147160969,3483,-2,9,61664
1349713368,5805,166.3300018310547000,19.2660999298095700,36.5453987121582000,246.1459960937500000,113.6005020141601600,19.2579994201660160,29.6653499603271500,56,104,80,63,50,13019,2146957330,2147526409,2147288237,2147454034,2147130880,2147322121,2148273060,2147165659,3243,-2,9,49474
1349713445,5803,161.9199981689453000,19.2639999389648440,36.5449981689453100,246.4942016601562500,113.5366973876953100,19.2599391937255860,29.6489505767822270,56,103,80,61,50,13019,2146956562,2147524013,2147282185,2147451181,2147122788,2147291154,2148206784,2147163154,2789,-1,9,28192
1349713511,5805,158.0299987792968800,19.2035999298095700,36.5152015686035160,246.9275970458984400,115.3419036865234400,19.2052402496337900,29.6527309417724600,58,105,81,62,50,13021,2146956964,2147529490,2147293449,2147455003,2147153600,2147449435,2148459044,2147177417,2509,-2,9,47090
1349713577,5805,154.1699981689453000,19.2096996307373050,36.5171012878418000,246.7835998535156200,114.4750976562500000,19.2315006256103500,29.6480903625488280,57,105,81,61,50,13017,2146955867,2147531419,2147295286,2147455122,2147156050,2147488192,2148520832,2147181376,2393,-2,9,61647
1349713646,5802,150.1199951171875000,19.4288005828857420,36.5717010498046900,246.1587066650390600,108.2316970825195300,19.4207191467285160,29.5952091217041000,57,107,81,60,50,13016,2146959113,2147534537,2147296146,2147454217,2147170770,2147499154,2148508681,2147182564,2507,-2,9,36095
1349713712,5804,146.2700042724609400,19.5039005279541000,36.5857009887695300,246.4373016357422000,105.6882019042968800,19.4978408813476560,29.5496692657470700,60,107,81,62,50,13010,2146958107,2147532571,2147296713,2147454427,2147178340,2147540196,2148559680,2147185984,2438,-2,9,44438
1349713778,5806,142.4199981689453000,19.5958003997802730,36.5956993103027340,246.3421020507812500,102.8051986694336000,19.5852794647216800,29.5170497894287100,65,109,82,61,49,13011,2146959286,2147535259,2147303542,2147456146,2147198409,2147615296,2148677622,2147192420,2501,-2,9,41253
1349713855,5807,138.1399993896484400,19.6681995391845700,36.6030006408691400,246.1363067626953000,100.1965026855468800,19.6644096374511720,29.4924907684326170,67,111,82,62,50,13007,2146959433,2147540297,2147302866,2147455396,2147212827,2147665005,2148716470,2147197046,2746,-1,9,35018
1349713921,5805,134.5899963378906200,19.7290000915527340,36.6066017150878900,246.6470031738281200,98.1849975585937500,19.7254505157470700,29.4435806274414060,71,114,82,61,50,12999,2146961389,2147544256,2147312365,2147453613,2147260827,2147808429,2148927378,2147210075,3023,-2,9,32691
1349714000,5803,130.4400024414062500,19.8272991180419920,36.6181983947753900,246.5559997558593800,94.8108673095703100,19.8278694152832030,29.4043102264404300,77,115,81,61,50,12996,2146961225,2147557229,2147333613,2147454756,2147341613,2148157138,2149461824,2147248173,3344,-2,9,13704
1349714077,5805,126.6699981689453100,19.8957004547119140,36.6250991821289060,246.4221038818359400,92.7081069946289000,19.8917102813720700,29.3833007812500000,79,117,83,63,50,12992,2146963300,2147547117,2147316790,2147455451,2147314358,2147917376,2149037376,2147220324,3172,-2,9,63100
1349714165,5805,122.6800003051757800,20.0265998840332030,36.6337013244628900,245.8327026367187500,88.4818191528320300,20.0200805664062500,29.3553009033203120,82,116,82,61,50,12986,2146965586,2147549897,2147313051,2147454290,2147327881,2147939309,2149041115,2147223177,2839,-2,9,1859
1349714264,5810,118.8199996948242200,20.1609992980957030,36.6341018676757800,247.3148040771484400,83.7769622802734400,20.1630592346191400,29.2287902832031250,100,122,82,63,50,12972,2146968438,2147559332,2147335232,2147452937,2147433316,2148247195,2149488310,2147258514,2736,-1,9,761
1349714376,5805,115.1600036621093800,20.3141002655029300,36.6436004638671900,249.6091003417968800,79.0971908569336000,20.3053493499755860,29.0674991607666000,110,124,83,61,49,12963,2146973778,2147563373,2147338459,2147450934,2147491757,2148319122,2149549924,2147264219,3246,-1,9,44401
1349714497,5805,110.8099975585937500,20.4591999053955080,36.6479988098144500,252.4011993408203000,74.3523101806640600,20.4497108459472660,28.8854293823242200,121,122,83,63,50,12950,2146977206,2147569728,2147354523,2147454363,2147629312,2148603364,2149913938,2147298139,3330,-1,9,64856
1349714596,5806,106.4700012207031200,20.5960006713867200,36.6571998596191400,254.5677032470703000,70.0316009521484400,20.5812397003173830,28.7373504638671880,127,123,82,63,50,12945,2146983561,2147581650,2147378541,2147455113,2147738477,2148825508,2150223588,2147328704,380,-1,9,3563
1349714674,5806,102.4499969482421900,20.6723003387451170,36.6590995788574200,255.9181976318359400,67.1893463134765600,20.6678104400634770,28.6438999176025400,132,123,82,62,50,12935,2146994578,2147598646,2147407844,2147455350,2147938560,2149231716,2150712521,2147373412,434,-2,9,8066
1349714751,5807,98.0999984741211000,20.8444004058837900,36.6641998291015600,256.9310913085937500,62.1426391601562500,20.8215904235839840,28.5375194549560550,132,125,82,62,50,12917,2146997558,2147605833,2147421412,2147456621,2148086427,2149451556,2150924918,2147399049,258,-1,9,27550
1349714806,5808,95.5899963378906200,20.9536991119384770,36.6680984497070300,256.2764892578125000,58.4002189636230500,20.9356994628906250,28.5180702209472660,138,122,82,62,50,12918,2146991634,2147593636,2147393664,2147454052,2148018715,2149139044,2150389568,2147362157,378,-2,9,20284
1349714861,5806,93.5800018310546900,20.9766006469726560,36.6683006286621100,258.8301086425781000,57.1168785095214840,20.9748497009277340,28.3944492340087900,130,124,83,61,50,12915,2146998134,2147599232,2147399195,2147453184,2148102976,2149224365,2150428361,2147368411,539,-2,9,54469
1349714916,5805,91.6200027465820300,21.0655002593994140,36.6725006103515600,259.6193847656250000,54.5026016235351560,21.0546092987060550,28.3288002014160160,136,123,83,63,50,12915,2147015369,2147632118,2147451291,2147456594,2148466614,2149969956,2151359442,2147456448,698,-2,9,53108
1349714973,5804,89.4899978637695300,21.2000999450683600,36.6753997802734400,259.7973022460937500,50.3276405334472660,21.1820392608642580,28.2693901062011720,135,123,83,62,50,12907,2147019474,2147639945,2147449837,2147456557,2148610304,2150148297,2151476608,2147474971,1073,-2,9,49694
1349715028,5803,87.4100036621093800,21.2931003570556640,36.6745986938476560,261.3510131835937500,47.3742599487304700,21.2722396850585940,28.1680393218994140,126,124,82,61,49,12917,2147035456,2147667017,2147490587,2147455844,2148982464,2150874752,2152332315,2147559296,1162,-2,9,62303
1349715083,5806,85.4599990844726600,21.3717994689941400,36.6836013793945300,258.8626098632812500,44.3190002441406250,21.3656005859375000,28.2332000732421880,119,117,85,61,50,12924,2147060004,2147702710,2147554386,2147462509,2149487561,2151824914,2153416649,2147663524,914,-1,9,33983
1349715138,5808,83.7600021362304700,21.5142993927001950,36.6758003234863300,258.0588073730469000,40.0924110412597660,21.4948101043701170,28.2141094207763670,107,118,82,60,48,12923,2147119533,2147817344,2147742409,2147471625,2150867218,2154611062,2156731209,2147986294,602,-1,9,17067
1349715204,5804,82.4100036621093800,21.5370006561279300,36.6757011413574200,259.1889953613281000,39.3002204895019500,21.5190391540527340,28.1569404602050780,103,122,84,61,50,12925,2147093357,2147765202,2147624612,2147464054,2150359488,2153259520,2154774299,2147815030,860,-2,9,17577
1349715305,5804,80.0400009155273400,21.6536006927490230,36.6797981262207000,262.0289001464844000,35.3306083679199200,21.6404800415039060,27.9904003143310550,97,119,84,62,50,12912,2147122432,2147788571,2147631561,2147465472,2150870774,2153778596,2154923483,2147846354,831,-1,9,30128
1349715360,5805,77.6500015258789000,21.7688007354736330,36.6823005676269500,264.8334960937500000,31.3653297424316400,21.7618808746337900,27.8273105621337900,93,121,85,61,50,12914,2147156050,2147826843,2147664685,2147467510,2151555794,2154688978,2155599936,2147923830,1020,-2,9,59575
1349715415,5804,75.0599975585937500,21.9101009368896500,36.6741981506347660,264.0757141113281000,26.9217891693115230,21.8980007171630860,27.8031196594238280,91,121,84,62,50,12917,2147167241,2147835547,2147651291,2147465005,2151910994,2154941522,2155532854,2147931565,684,-1,9,57463
1349715470,5806,72.5699996948242200,22.0235996246337900,36.6556015014648440,264.7811889648437500,23.3179397583007800,22.0084800720214840,27.7300491333007800,90,121,83,64,50,12919,2147191341,2147858706,2147672731,2147466898,2152411803,2155503945,2155859602,2147971666,701,-2,9,48625
1349715525,5807,70.4700012207031200,22.1182003021240230,36.6515007019043000,267.1606140136719000,20.2916793823242200,22.1012992858886720,27.5974102020263670,90,123,83,62,50,12913,2147251840,2147944137,2147782235,2147475977,2153715318,2157480749,2157710016,2148172937,617,-2,9,46087
1349715602,5805,67.9800033569336000,22.3484001159667970,36.6553001403808600,269.1473083496094000,11.9503202438354500,22.3574008941650400,27.4163703918457030,89,122,84,62,50,12907,2147560027,2148404361,2148374061,2147522614,2160404288,2168181449,2168234395,2149288832,774,-1,9,42525
1349715657,5808,66.2300033569336000,22.5548992156982420,36.6481018066406250,269.7869873046875000,6.2527480125427250,22.5325393676757800,27.3215007781982420,85,122,84,62,49,12905,2147800630,2148742418,2148800685,2147560493,2165419172,2175879798,2175450861,2150071323,678,-2,9,26087
1349715745,5808,64.4199981689453100,22.7304000854492200,36.6369018554687500,270.2690124511719000,0.6526350975036621,22.7048702239990230,27.2344093322753900,82,124,84,62,50,12904,2147707748,2148558098,2148464228,2147525568,2163636882,2171942482,2170606656,2149552585,267,-2,9,55126
1349715866,5804,62.6599998474121100,22.7966995239257800,36.6376991271972660,272.4898071289062500,-2.3306429386138916,22.7967395782470700,27.1114997863769530,81,124,84,63,49,12898,2148200000,2149233188,2149168539,2147577435,2174948717,2189580745,2187434450,2151372580,3376,-2,9,21120
1349715989,5808,60.0600013732910160,23.0671005249023440,36.6235008239746100,272.8176879882812500,-10.6372804641723630,23.0528297424316400,26.9981307983398440,81,128,83,62,48,12899,2148468004,2149523986,2149314752,2147575963,2181303817,2197520859,2193194084,2152014153,2609,-2,9,29151
1349716077,5806,58.8100013732910160,23.4645004272460940,36.5848007202148440,272.1701965332031000,-21.6572399139404300,23.3931999206542970,26.8900203704834000,77,126,84,63,48,12874,2148372571,2149337572,2149076745,2147553325,2178870656,2192370541,2187389888,2151323757,2561,-1,9,12693
1349716332,5804,56.2299995422363300,23.7801990509033200,36.5680999755859400,269.8114929199219000,-33.6825981140136700,23.7654991149902340,26.8363399505615230,72,128,84,63,49,12892,2148492909,2149421147,2149075885,2147555081,2181371337,2193800374,2186932763,2151397266,2294,-2,9,41593
1349716663,5807,51.6599998474121100,24.2285003662109380,36.5337982177734400,266.6958007812500000,-48.2891883850097660,24.2189998626709000,26.7823600769042970,67,129,85,63,48,12887,2149702491,2150823488,2150518610,2147717165,2208222820,2227689417,2213775661,2154558820,110,-2,9,46690
1349716697,5807,50.2400016784668000,24.2541999816894530,36.5332984924316400,266.5567016601562500,-49.3916702270507800,24.2532901763916000,26.7744808197021500,68,131,85,63,49,12891,2150044873,2151175296,2150730752,2147717906,2216087122,2237576685,2221833289,2155615305,3359,-1,9,7010
1349716742,5806,48.7400016784668000,24.3388004302978500,36.5228996276855500,266.0622863769531000,-52.2415885925293000,24.3419609069824220,26.7596702575683600,68,125,84,62,47,12890,2149820370,2150833691,2150279826,2147660781,2210587840,2228696621,2213381714,2154687177,2815,-2,9,65380
1349716991,5807,46.8699989318847660,25.0326995849609380,36.4818992614746100,263.1123046875000000,-74.3653869628906200,25.0323295593261720,26.6103992462158200,68,125,85,64,49,12879,2151173046,2152378596,2152097654,2147975341,2238191085,2261178285,2238614125,2158042249,941,-2,9,40643
1349717084,5806,44.7500000000000000,25.0380001068115230,36.4785003662109400,262.4978027343750000,-75.1699676513671900,25.0575008392334000,26.6252193450927730,66,130,83,62,51,12883,2151138395,2152288155,2151871149,2147945627,2238654144,2260646546,2238037147,2158354349,1062,-1,10,1853
1349717188,5808,42.5099983215332000,25.1895008087158200,36.4608001708984400,261.4204101562500000,-79.4563522338867200,25.1916999816894530,26.6165504455566400,63,128,84,63,50,12879,2149278089,2149973650,2149478025,2147683803,2198442185,2206233115,2191379538,2152578230,624,-2,8,18790
1349717233,5808,40.8699989318847660,25.3887996673584000,36.4569015502929700,260.2513122558594000,-84.8845367431640600,25.3618602752685550,26.5983009338378900,62,127,83,63,50,12882,2149073444,2149678217,2149087296,2147609197,2194031085,2199758198,2185630290,2151957668,12,-2,9,60159
1349717374,5804,38.9799995422363300,25.7793006896972660,36.4413986206054700,257.1799011230469000,-97.5469970703125000,25.7596797943115230,26.5698509216308600,63,127,83,62,50,12865,2151038308,2151898953,2151000640,2147744356,2235494829,2251611629,2227059136,2156883419,3107,-2,10,8669
1349717884,5805,36.7999992370605500,26.9680004119873050,36.3940010070800800,243.3775939941406200,-135.5061950683593800,26.9603099822998050,26.6873207092285160,64,125,84,61,48,12891,2153498075,2154570340,2153873316,2148411446,2290336054,2315273170,2277049344,2165224960,1051,-2,9,62841
1349718325,5805,34.9000015258789060,27.0223999023437500,36.3045997619628900,239.0590972900390600,-138.0381011962890600,27.0408496856689450,26.8433609008789060,59,117,81,63,50,12899,2151824027,2152442093,2151318107,2147845293,2255212278,2268523017,2236484132,2159167460,28,-1,9,23937